TimeEST,TemperatureF,Dew PointF,Humidity,Sea Level PressureIn,VisibilityMPH,Wind Direction,Wind SpeedMPH,Gust SpeedMPH,PrecipitationIn,Events,Conditions,WindDirDegrees,DateUTC
12:54 AM,39.9,26.1,58,30.37,10.0,WNW,12.7,19.6,N/A,,Overcast,290,2013-01-10 05:54:00
1:54 AM,39.0,27.0,62,30.40,10.0,NW,16.1,23.0,N/A,,Overcast,310,2013-01-10 06:54:00
2:54 AM,37.9,24.1,57,30.41,10.0,NW,11.5,26.5,N/A,,Partly Cloudy,310,2013-01-10 07:54:00
3:54 AM,37.0,25.0,62,30.43,10.0,WNW,5.8,-,N/A,,Mostly Cloudy,290,2013-01-10 08:54:00
4:54 AM,35.1,26.1,70,30.48,10.0,SW,4.6,-,N/A,,Overcast,220,2013-01-10 09:54:00
5:54 AM,35.1,27.0,72,30.50,10.0,WSW,6.9,-,N/A,,Overcast,240,2013-01-10 10:54:00
6:54 AM,36.0,26.1,67,30.52,10.0,West,5.8,-,N/A,,Overcast,270,2013-01-10 11:54:00
7:54 AM,36.0,27.0,70,30.56,10.0,West,6.9,-,N/A,,Overcast,260,2013-01-10 12:54:00
8:54 AM,36.0,27.0,70,30.60,10.0,West,4.6,-,N/A,,Overcast,260,2013-01-10 13:54:00
9:54 AM,37.0,27.0,67,30.61,10.0,West,5.8,-,N/A,,Overcast,270,2013-01-10 14:54:00
10:54 AM,39.9,26.1,58,30.60,10.0,WNW,6.9,-,N/A,,Scattered Clouds,290,2013-01-10 15:54:00
11:54 AM,39.9,26.1,58,30.57,10.0,WNW,6.9,-,N/A,,Scattered Clouds,290,2013-01-10 16:54:00
12:54 PM,41.0,26.1,55,30.55,10.0,Calm,Calm,-,N/A,,Scattered Clouds,0,2013-01-10 17:54:00
1:54 PM,42.1,27.0,55,30.55,10.0,NNW,5.8,-,N/A,,Scattered Clouds,340,2013-01-10 18:54:00
2:54 PM,41.0,27.0,57,30.56,10.0,SW,3.5,-,N/A,,Mostly Cloudy,230,2013-01-10 19:54:00
3:54 PM,41.0,27.0,57,30.56,10.0,SW,4.6,-,N/A,,Mostly Cloudy,230,2013-01-10 20:54:00
4:54 PM,37.9,28.9,70,30.55,10.0,SW,4.6,-,N/A,,Mostly Cloudy,230,2013-01-10 21:54:00
5:54 PM,37.0,28.9,73,30.55,10.0,ENE,3.5,-,N/A,,Mostly Cloudy,70,2013-01-10 22:54:00
6:54 PM,35.1,28.0,76,30.55,10.0,ESE,4.6,-,N/A,,Mostly Cloudy,110,2013-01-10 23:54:00
7:54 PM,35.1,28.0,76,30.54,10.0,ESE,5.8,-,N/A,,Mostly Cloudy,110,2013-01-11 00:54:00
8:54 PM,35.1,28.0,76,30.54,10.0,ESE,6.9,-,N/A,,Mostly Cloudy,110,2013-01-11 01:54:00
9:54 PM,35.1,28.0,76,30.52,10.0,East,8.1,-,N/A,,Mostly Cloudy,100,2013-01-11 02:54:00
10:54 PM,34.0,28.0,79,30.49,10.0,ESE,6.9,-,N/A,,Mostly Cloudy,110,2013-01-11 03:54:00
11:54 PM,35.1,28.0,76,30.45,10.0,ESE,8.1,-,N/A,,Mostly Cloudy,120,2013-01-11 04:54:00